Home   Weather   Fairfield   Past weeks
Flag for Jamaica

Past Weather in Fairfield, Jamaica — Yesterday and Last 2 Weeks

Now
88 °F

Passing clouds.


Feels Like: 100 °F
Forecast: 91 / 75 °F
Wind: 16 mph from South

Location: Kingston / Norman Manley

Current Time: Jul 5, 2020 at 4:26:35 pm

Latest Report: Jul 5, 2020 at 4:00 pm


Visibility: N/A

Pressure: 29.92 "Hg

Humidity: 70%

Dew Point: 77 °F

Location of FairfieldLocation

Past Weather in Fairfield — Graph

°F

Fairfield Temperature Yesterday

Maximum temperature yesterday: 91 °F (at 10:00 am)
Minimum temperature yesterday: 82 °F (at 4:00 am)
Average temperature yesterday: 86 °F

High & Low Weather Summary for the Past Weeks

 TemperatureHumidityPressure
High91 °F (Jun 21, 12:00 pm)89% (Jun 30, 3:00 pm)30.04 "Hg (Jun 30, 3:00 pm)
Low79 °F (Jun 30, 3:00 pm)52% (Jun 24, 10:00 am)29.86 "Hg (Jun 27, 3:00 pm)
Average86 °F71%29.94 "Hg
* Reported Jun 20 3:00 pm — Jul 5 3:00 pm, Fairfield. Weather by CustomWeather, © 2020

Note: Actual official high and low records may vary slightly from our data, if they occured in-between our weather recording intervals... More about our weather records

Fairfield Weather History for the Previous 24 Hours

Scroll right to see more
 ConditionsComfort  
Time TempWeatherWind HumidityBarometerVisibility
3:00 pm
Sun, Jul 5
88 °FPassing clouds.17 mph70%29.92 "HgN/A
2:00 pm88 °FThunderstorms. Passing clouds.21 mph66%29.92 "HgN/A
1:34 pm90 °FThunderstorms. Passing clouds.18 mph67%29.92 "HgN/A
1:00 pm90 °FPassing clouds.16 mph71%29.95 "HgN/A
12:00 pm90 °FPassing clouds.20 mph71%29.98 "HgN/A
11:00 am90 °FPassing clouds.17 mph67%29.98 "HgN/A
10:43 am90 °FPassing clouds.16 mph63%29.98 "HgN/A
10:00 am90 °FPassing clouds.6 mph55%30.01 "HgN/A
9:00 am88 °FPassing clouds.8 mph62%29.98 "HgN/A
8:00 am86 °FPassing clouds.6 mph66%29.98 "HgN/A
7:00 am82 °FPassing clouds.10 mph70%29.95 "HgN/A
6:00 am81 °FPassing clouds.12 mph79%29.95 "HgN/A
5:00 am82 °FPassing clouds.7 mph70%29.92 "HgN/A
4:00 am82 °FPassing clouds.6 mph70%29.92 "HgN/A
3:00 am82 °FPassing clouds.6 mph70%29.92 "HgN/A
2:00 am82 °FPassing clouds.7 mph74%29.92 "HgN/A
1:00 am84 °FPassing clouds.9 mph74%29.95 "HgN/A
12:00 am84 °FPassing clouds.8 mph66%29.95 "HgN/A
11:00 pm
Sat, Jul 4
84 °FPassing clouds.13 mph66%29.98 "HgN/A
10:00 pm86 °FPassing clouds.13 mph66%29.95 "HgN/A
9:00 pm86 °FPassing clouds.5 mph62%29.95 "HgN/A
8:00 pm86 °FPassing clouds.13 mph62%29.92 "HgN/A
7:00 pm86 °FPassing clouds.18 mph70%29.89 "HgN/A
6:00 pm86 °FPassing clouds.20 mph75%29.89 "HgN/A
5:00 pm88 °FPassing clouds.22 mph70%29.89 "HgN/A
4:00 pm88 °FPassing clouds.26 mph70%29.89 "HgN/A
Weather by CustomWeather, © 2020

See weather overview